This is the latest recevied weather packets stored in our database for station/object DH8TOM-2. If no packets are shown the sender has not sent any weather packets the latest 1 day(s).
| Time | Temp. | Humidity | Pressure | Rain* | Wind** | Luminosity | Snow |
|---|---|---|---|---|---|---|---|
| 1778097230 | 10° C | 94% | 1006.7 hPa | 0 mm | - | - | - |
| 1778096326 | 10° C | 93% | 1006.4 hPa | 0 mm | - | - | - |
| 1778096025 | 10° C | 93% | 1006.4 hPa | 0 mm | - | - | - |
| 1778095724 | 10° C | 93% | 1006.3 hPa | 0 mm | - | - | - |
| 1778095122 | 10° C | 93% | 1006.2 hPa | 0 mm | - | - | - |
| 1778094821 | 10° C | 93% | 1006.2 hPa | 0 mm | - | - | - |
| 1778093617 | 10.56° C | 93% | 1005.9 hPa | 0.51 mm | - | - | - |
| 1778093015 | 10.56° C | 92% | 1005.8 hPa | 0.51 mm | - | - | - |
| 1778090306 | 11.11° C | 93% | 1005.4 hPa | 0.76 mm | - | - | - |
| 1778088801 | 11.11° C | 92% | 1005.3 hPa | 1.02 mm | - | - | - |
| 1778088500 | 11.11° C | 92% | 1005.3 hPa | 1.27 mm | - | - | - |
| 1778087296 | 11.11° C | 91% | 1005.2 hPa | 1.27 mm | - | - | - |
| 1778086995 | 11.11° C | 91% | 1005.2 hPa | 1.27 mm | - | - | - |
| 1778086694 | 11.67° C | 92% | 1005.2 hPa | 1.02 mm | - | - | - |
| 1778086393 | 11.67° C | 92% | 1005.2 hPa | 1.02 mm | - | - | - |
| 1778084889 | 12.22° C | 91% | 1005 hPa | 0.51 mm | - | - | - |
| 1778084346 | 12.22° C | 91% | 1004.9 hPa | 1.02 mm | - | - | - |
| 1778083985 | 12.22° C | 91% | 1004.9 hPa | 1.02 mm | - | - | - |
| 1778083684 | 12.22° C | 91% | 1004.8 hPa | 1.02 mm | - | - | - |
| 1778082480 | 12.78° C | 90% | 1004.6 hPa | 2.54 mm | - | - | - |
| 1778082179 | 12.78° C | 90% | 1004.6 hPa | 2.54 mm | - | - | - |
| 1778080072 | 13.33° C | 91% | 1004.5 hPa | 3.05 mm | - | - | - |
| 1778079771 | 13.33° C | 91% | 1004.5 hPa | 3.05 mm | - | - | - |
| 1778079470 | 13.33° C | 90% | 1004.4 hPa | 2.79 mm | - | - | - |
| 1778078266 | 13.33° C | 89% | 1004.3 hPa | 1.52 mm | - | - | - |
* Rain latest hour (hover to see other rain measurements)
** Current wind speed in m/s (hover to see current wind gust speed)